User: anonymous   Login
Location: Unspecified
(0.0000°N, 0.0000°E)
Time: 10:56:30
(UTC+00:00)
Language:

Uribyol 2 - Orbit

View from above orbital plane
View from above orbital plane
View from above satellite
View from above satellite

Ground track
Ground track

The orbit data is extracted from the following two-line orbital elements,

1 22828U 93061F   19081.92154942 +.00000009 +00000-0 +21009-4 0  9991
2 22828 098.8842 067.0403 0009325 204.9618 155.1114 14.30699755297759
Epoch (UTC): 22 March 2019 22:07:01
Eccentricity: 0.0009325
inclination: 98.8842°
perigee height: 783 km
apogee height: 796 km
right ascension of ascending node: 67.0403°
argument of perigee: 204.9618°
revolutions per day: 14.30699755
mean anomaly at epoch: 155.1114°
orbit number at epoch: 29775

The dashed part of the orbit path shows where the satellite is in the earth's shadow,  

DLR